Regional Weather Roundup
Issued by NWS

Home | Current Version | Previous Version | Text Only | Print | Product List | Glossary Off
Versions: 1 2 3 4 5 6 7 8 9 10 11 12 13 14 15 16 17 18 19 20 21 22 23 24 25 26 27 28 29 30 31 32 33 34 35 36 37 38 39 40 41 42 43 44 45 46 47 48 49 50

000
ASUS43 KOAX 160110
RWRNE

WEATHER ROUNDUP FOR NEBRASKA
NATIONAL WEATHER SERVICE OMAHA NE
700 PM CST SUN JAN 15 2017

NOTES: SATELLITE DATA IS BEING USED TO AUGMENT CLOUD COVER ABOVE
       12000 FEET.
       "FAIR" INDICATES FEW OR NO CLOUDS BELOW 12,000 FEET WITH NO
       SIGNIFICANT WEATHER AND/OR OBSTRUCTIONS TO VISIBILITY.

  * THESE STATIONS DO NOT REPORT WEATHER SUCH AS RAIN...SNOW OR FOG.

NEZ001>004-019>022-054>056-160200-
NEBRASKA PANHANDLE

CITY           SKY/WX    TMP DP  RH WIND       PRES   REMARKS
SCOTTSBLUFF    CLOUDY    31  25  78 N5        29.99S WCI  26
ALLIANCE       CLOUDY    31  23  72 CALM      29.98F
CHADRON        CLOUDY    22  19  89 SW7       30.03R WCI  13
KIMBALL        CLOUDY    34  27  76 NE3       29.96F
SIDNEY         CLOUDY    29  26  89 CALM      29.98F
$$

NEZ057>060-069>072-079>082-160200-
SOUTHWEST NEBRASKA

CITY           SKY/WX    TMP DP  RH WIND       PRES   REMARKS
NORTH PLATTE   FRZ RAIN  31  29  92 E3        30.05F FOG
IMPERIAL       FRZ RAIN  31  28  89 NE5       30.01F FOG     WCI  26
LEXINGTON      MIX PCPN  31  29  92 E3        30.07S
MCCOOK         MIX PCPN  30  30 100 E6        30.05S FOG     WCI  24
OGALLALA       MIX PCPN  32  29  90 CALM      30.02F
$$

NEZ005>010-023>029-035>040-094-160200-
NORTH CENTRAL NEBRASKA

CITY           SKY/WX    TMP DP  RH WIND       PRES   REMARKS
VALENTINE      CLOUDY    34  23  64 CALM      30.04S
AINSWORTH      CLOUDY    32  27  80 S5        30.05S WCI  27
BROKEN BOW     FRZ RAIN  31  29  92 CALM      30.06F FOG
O`NEILL        CLOUDY    32  23  70 S5        30.10S WCI  27
ORD            FRZ RAIN  31  28  89 SE3       30.09S FOG
THEDFORD       CLOUDY    35  26  69 S3        30.05S
$$

NEZ041-046>049-061>064-073>077-083>087-160200-
SOUTH CENTRAL NEBRASKA

CITY           SKY/WX    TMP DP  RH WIND       PRES   REMARKS
GRAND ISLAND   CLOUDY    30  30 100 SE6       30.12S WCI  24
AURORA         MIX PCPN  30  29  96 SE6       30.12S WCI  24
HASTINGS       CLOUDY    30  28  92 E7        30.11S WCI  23
HEBRON         MIX PCPN  31  30  96 E6        30.12F WCI  25
HOLDREGE       MIX PCPN  30  29  96 NE6       30.07F WCI  24
KEARNEY *      CLOUDY    30  27  86 CALM      30.10R
YORK           MOCLDY    32  30  93 CALM      30.14S
$$

NEZ011>018-030>034-042>045-160200-
NORTHEAST NEBRASKA

CITY           SKY/WX    TMP DP  RH WIND       PRES   REMARKS
NORFOLK        CLOUDY    31  24  75 S6        30.13F WCI  25
ALBION         MIX PCPN  30  28  93 SE6       30.12S WCI  24
BLAIR          MIX PCPN  32  30  94 SE6       30.16F WCI  26
FREMONT        MIX PCPN  31  30  98 E5        30.17F WCI  26
TEKAMAH        FRZ RAIN  31  28  89 SE6       30.19S FOG     WCI  25
WAYNE          CLOUDY    31  25  78 CALM      30.15S
$$

NEZ050>053-065>068-078-088>093-160200-
SOUTHEAST NEBRASKA

CITY           SKY/WX    TMP DP  RH WIND       PRES   REMARKS
LINCOLN        FRZ RAIN  31  29  92 E7        30.17F WCI  24
OMAHA EPPLEY   FRZ RAIN  32  28  85 SE6       30.19F FOG     WCI  26
BEATRICE       MIX PCPN  32  31  96 E5        30.15S WCI  27
FALLS CITY     FRZ RAIN  32  30  92 E8        30.17F FOG     WCI  25
NEBRASKA CITY  MIX PCPN  31  31  99 E5        30.18F WCI  27
PLATTSMOUTH    MIX PCPN  32  29  90 E7        30.18F WCI  25
$$

NEZ044-045-051>053-067-160200-
OMAHA AREA

CITY           SKY/WX    TMP DP  RH WIND       PRES   REMARKS
OMAHA EPPLEY   FRZ RAIN  32  28  85 SE6       30.19F FOG     WCI  26
BLAIR          MIX PCPN  32  30  94 SE6       30.16F WCI  26
FREMONT        MIX PCPN  31  30  98 E5        30.17F WCI  26
MILLARD        RAIN      33  31  93 E3        30.18F
OFFUTT AFB     FRZ RAIN  32  32 100 SE3       30.18F
PLATTSMOUTH    MIX PCPN  32  29  90 E7        30.18F WCI  25
WAHOO          MIX PCPN  31  29  94 SE8       30.17S WCI  23
$$



USA.gov is the U.S. government's official web portal to all federal, state and local government web resources and services.